Weather History for KHBG - September, 2013

Change the Weather History Date:

Tuesday, September 10, 2013

  Actual Average Record
Temperature  
Mean Temperature 82 °F 79 °F  
Max Temperature 93 °F 89 °F 100 °F (1954)
Min Temperature 70 °F 68 °F 53 °F (1956)
Degree Days  
Heating Degree Days 0 0  
Month to date heating degree days 0 0  
Since 1 July heating degree days 0 0  
Cooling Degree Days 17 14  
Month to date cooling degree days 176 145  
Year to date cooling degree days 1955 2016  
Growing Degree Days 30 (Base 50)    
Moisture  
Dew Point 71 °F    
Average Humidity 73    
Maximum Humidity 97    
Minimum Humidity 49    
Precipitation  
Precipitation 0.54 in 0.15 in 0.68 in (1965)
Month to date precipitation 2.06 1.39  
Year to date precipitation 54.23 43.55  
Sea Level Pressure  
Sea Level Pressure 30.09 in    
Wind  
Wind Speed 3 mph (SE)    
Max Wind Speed 13 mph    
Max Gust Speed -    
Visibility 6 miles    
Events Rain , Thunderstorm    
T = Trace of Precipitation, MM = Missing Value Source: NWS Daily Summary

Daily Weather History Graph

Daily Weather History Graph

Search for Another Location

Airport or City:

Trip Planner

Search our weather history database for the weather conditions in past years. The results will help you decide how hot, cold, wet, or windy it might be!

Date:

Astronomy

Sep. 10, 2013 Rise Set
Actual Time 6:38 AM CDT 7:08 PM CDT
Civil Twilight 6:14 AM CDT 7:33 PM CDT
Nautical Twilight 5:45 AM CDT 8:01 PM CDT
Astronomical Twilight 5:16 AM CDT 8:30 PM CDT
Moon 11:41 AM CDT (9/10) 10:35 PM CDT (9/10)
Length of Visible Light 13h 19m
Length of Day
12h 30m
Waxing Crescent, 28% of the Moon is Illuminated
Sep 10
Waxing Crescent
Sep 12
First Quarter
Sep 19
Full
Sep 26
Last Quarter
Oct 4
New

Hourly Weather History & Observations

Time (CDT) Temp. Heat Index Dew Point Humidity Pressure Visibility Wind Dir Wind Speed Gust Speed Precip Events Conditions
12:53 AM 73.0 °F - 70.0 °F 90% 30.05 in 7.0 mi Calm Calm - N/A   Clear
1:53 AM 73.0 °F - 70.0 °F 90% 30.05 in 7.0 mi Calm Calm - N/A   Clear
2:53 AM 73.0 °F - 70.0 °F 90% 30.05 in 5.0 mi Calm Calm - N/A   Clear
3:53 AM 72.0 °F - 69.1 °F 91% 30.06 in 6.0 mi Calm Calm - N/A   Clear
4:53 AM 72.0 °F - 69.1 °F 91% 30.06 in 7.0 mi Calm Calm - N/A   Clear
5:53 AM 71.1 °F - 68.0 °F 90% 30.08 in 7.0 mi Calm Calm - N/A   Clear
6:53 AM 70.0 °F - 68.0 °F 93% 30.09 in 3.0 mi Calm Calm - N/A   Clear
7:53 AM 73.9 °F - 71.1 °F 91% 30.11 in 4.0 mi Calm Calm - N/A   Clear
8:53 AM 79.0 °F - 72.0 °F 79% 30.12 in 6.0 mi Calm Calm - N/A   Haze
9:53 AM 84.0 °F 89.6 °F 72.0 °F 67% 30.13 in 8.0 mi Calm Calm - N/A   Clear
10:53 AM 88.0 °F 93.8 °F 71.1 °F 57% 30.13 in 10.0 mi ENE 5.8 mph - N/A   Clear
11:53 AM 90.0 °F 96.4 °F 71.1 °F 54% 30.12 in 10.0 mi ESE 4.6 mph - N/A   Clear
12:53 PM 89.1 °F 95.0 °F 71.1 °F 55% 30.11 in 10.0 mi SE 8.1 mph - N/A   Mostly Cloudy
1:53 PM 91.0 °F 97.6 °F 71.1 °F 52% 30.09 in 10.0 mi SE 6.9 mph - N/A   Clear
2:53 PM 91.9 °F 97.4 °F 70.0 °F 48% 30.06 in 10.0 mi SSE 4.6 mph - N/A   Clear
3:23 PM 89.6 °F 96.2 °F 71.6 °F 55% 30.06 in 10.0 mi NE 9.2 mph - N/A Thunderstorm Scattered Clouds
3:48 PM 86.0 °F 91.8 °F 71.6 °F 62% 30.06 in 9.0 mi North 12.7 mph - 0.00 in Rain Light Rain
3:53 PM 84.0 °F 89.6 °F 72.0 °F 67% 30.05 in 9.0 mi North 11.5 mph - 0.00 in Rain Light Rain
4:16 PM 82.4 °F 87.2 °F 71.6 °F 70% 30.06 in 10.0 mi NNW 10.4 mph - 0.00 in Thunderstorm Thunderstorm
4:38 PM 80.6 °F 84.6 °F 71.6 °F 74% 30.08 in 10.0 mi West 4.6 mph - 0.00 in   Overcast
4:44 PM 80.6 °F 84.6 °F 71.6 °F 74% 30.09 in 1.8 mi West 5.8 mph - 0.10 in Rain Light Rain
4:53 PM 79.0 °F - 73.0 °F 82% 30.09 in 1.0 mi SE 9.2 mph - 0.19 in Rain Light Rain
4:57 PM 78.8 °F - 73.4 °F 83% 30.09 in 3.0 mi SE 11.5 mph - 0.03 in Rain Light Rain
5:02 PM 77.0 °F - 69.8 °F 78% 30.08 in 1.5 mi South 8.1 mph - 0.18 in Rain Heavy Rain
5:05 PM 75.2 °F - 69.8 °F 83% 30.08 in 0.8 mi South 11.5 mph - 0.27 in Rain Heavy Rain
5:12 PM 73.4 °F - 69.8 °F 88% 30.08 in 0.8 mi WSW 5.8 mph - 0.34 in Rain Heavy Rain
5:18 PM 73.4 °F - 69.8 °F 88% 30.08 in 2.0 mi NW 4.6 mph - 0.35 in Rain Rain
5:26 PM 73.4 °F - 71.6 °F 94% 30.08 in 6.0 mi SE 3.5 mph - 0.35 in Rain Light Rain
5:53 PM 75.0 °F - 72.0 °F 90% 30.07 in 8.0 mi Calm Calm - 0.35 in Thunderstorm Mostly Cloudy
6:12 PM 75.2 °F - 71.6 °F 89% 30.08 in 5.0 mi West 3.5 mph - N/A   Mostly Cloudy
6:53 PM 75.9 °F - 73.0 °F 91% 30.07 in 5.0 mi East 3.5 mph - N/A   Partly Cloudy
7:53 PM 75.9 °F - 72.0 °F 87% 30.10 in 9.0 mi SE 6.9 mph - 0.00 in Rain Light Rain
8:53 PM 77.0 °F - 73.0 °F 88% 30.12 in 9.0 mi SSE 3.5 mph - 0.00 in   Mostly Cloudy
9:53 PM 75.9 °F - 72.0 °F 87% 30.13 in 9.0 mi Calm Calm - N/A   Clear
10:53 PM 75.0 °F - 72.0 °F 90% 30.13 in 5.0 mi Calm Calm - N/A   Clear
11:53 PM 73.9 °F - 72.0 °F 93% 30.12 in 4.0 mi Calm Calm - N/A   Clear